Flag for Belgium Weather past 2 weeks in Namur, Belgium

Now
57 °F

Sunny.


Feels Like: 55 °F
Forecast: 49 / 59 °F
Wind: 9 mph from Southwest

Location: Charleroi / Gosselies

Current Time: May 5, 2015 at 10:31:01 PM

Latest Report: May 5, 2015 at 9:50 PM


Visibility: 10 mi

Pressure: 29.80 "Hg

Humidity: 55%

Dew point: 41 °F

Location of NamurLocation

Historic Weather in Namur — Graph

°F

Namur temperature yesterday

Maximum temperature yesterday: 68 °F (at 4:20 PM)
Minimum temperature yesterday: 52 °F (at 4:50 AM)
Average temperature yesterday: 59 °F

Past Weeks' High & Low Weather Summary

 TemperatureHumidityPressure
High70 °F (Apr 24, 2:20 PM)100% (Apr 23, 7:50 AM)30.48 "Hg (Apr 23, 7:50 AM)
Low36 °F (Apr 28, 4:50 AM)28% (Apr 21, 4:20 PM)29.39 "Hg (May 5, 4:20 AM)
Average52 °F72%29.91 "Hg
* Reported Apr 20 9:20 PM — May 5 9:20 PM, Namur, Weather by CustomWeather, © 2015

Note: Actual official high and low records may vary slightly from our data, if they occured in-between our weather recording intervals... More about our weather records

Advertising

Namur weather history for previous 24 hours

 ConditionsComfort  
Time TempWeatherWind HumidityBarometerVisibility
9:20 PM
Tue, May 5
57 °FPassing clouds.12 mph55%29.77 "HgN/A
8:50 PM59 °FPassing clouds.10 mph51%29.77 "HgN/A
8:20 PM61 °FPassing clouds.13 mph48%29.77 "HgN/A
7:50 PM61 °FPassing clouds.18 mph48%29.74 "HgN/A
7:20 PM61 °FPassing clouds.18 mph48%29.74 "HgN/A
6:50 PM61 °FPassing clouds.18 mph45%29.74 "HgN/A
6:20 PM61 °FPassing clouds.21 mph45%29.74 "HgN/A
5:50 PM61 °FPassing clouds.21 mph48%29.74 "HgN/A
5:20 PM63 °FPassing clouds.24 mph45%29.74 "HgN/A
4:50 PM61 °FScattered clouds.20 mph45%29.71 "HgN/A
4:20 PM61 °FScattered clouds.28 mph52%29.71 "HgN/A
3:50 PM59 °FScattered clouds.21 mph63%29.71 "HgN/A
3:20 PM57 °FScattered clouds.21 mph67%29.68 "HgN/A
2:50 PM57 °FScattered clouds.22 mph67%29.68 "HgN/A
2:20 PM55 °FBroken clouds.21 mph82%29.65 "HgN/A
1:50 PM54 °FSprinkles. Broken clouds.22 mph88%29.62 "HgN/A
1:20 PM59 °FLots of rain. Partly sunny.24 mph82%29.56 "Hg1 mi
12:50 PM61 °FSprinkles. Scattered clouds.31 mph77%29.53 "Hg4 mi
12:20 PM66 °FScattered clouds.32 mph60%29.50 "HgN/A
11:50 AM68 °FScattered clouds.23 mph64%29.47 "HgN/A
11:20 AM68 °FScattered clouds.25 mph64%29.47 "HgN/A
10:50 AM68 °FPassing clouds.23 mph64%29.45 "HgN/A
10:20 AM66 °FScattered clouds.23 mph68%29.45 "HgN/A
9:50 AM66 °FScattered clouds.22 mph73%29.45 "HgN/A
9:20 AM66 °FScattered clouds.15 mph68%29.42 "HgN/A
8:50 AM64 °FScattered clouds.14 mph78%29.42 "HgN/A
8:20 AM63 °FScattered clouds.13 mph83%29.42 "HgN/A
7:50 AM63 °FScattered clouds.16 mph83%29.42 "HgN/A
7:20 AM63 °FSprinkles. Passing clouds.14 mph83%29.42 "HgN/A
6:50 AM61 °FPassing clouds.12 mph88%29.42 "HgN/A
6:20 AM63 °FPassing clouds.12 mph83%29.42 "HgN/A
5:50 AM63 °FSprinkles. Passing clouds.14 mph83%29.42 "HgN/A
5:20 AM63 °FPassing clouds.14 mph83%29.39 "HgN/A
4:50 AM63 °FPassing clouds.13 mph83%29.39 "HgN/A
4:20 AM63 °FPassing clouds.12 mph88%29.39 "HgN/A
3:50 AM63 °FPassing clouds.13 mph83%29.42 "HgN/A
3:20 AM63 °FPassing clouds.10 mph88%29.42 "HgN/A
2:50 AM61 °FPassing clouds.9 mph94%29.42 "HgN/A
2:20 AM63 °FPassing clouds.10 mph88%29.42 "HgN/A
1:50 AM61 °FPassing clouds.9 mph94%29.42 "HgN/A
1:20 AM61 °FPassing clouds.9 mph94%29.42 "HgN/A
12:50 AM61 °FSprinkles. Passing clouds.10 mph88%29.42 "HgN/A
12:20 AM61 °FSprinkles. Passing clouds.12 mph88%29.45 "HgN/A
11:50 PM
Mon, May 4
59 °FSprinkles. Passing clouds.10 mph94%29.47 "HgN/A
10:50 PM57 °FSprinkles. Passing clouds.10 mph94%29.50 "HgN/A
10:20 PM59 °FRain showers. Passing clouds.13 mph88%29.53 "Hg4 mi
Weather by CustomWeather, © 2015

See weather overviewHow to use our weather pages